Theta_e
307 307 307 307 307 307 307 307 307 307 307 307 307 307 306 306 305 305 304 305 305 305 305 305 305 305 305 304 304 304 304 304 304 304 304 303 303 303 303 303 303 303
308 308 308 308 307 307 307 307 307 307 307 307 307 307 307 307 306 306 306 305 305 305 305 305 305 305 305 305 305 305 305 305 305 304 304 304 304 303 303 303 303 303
309 308 308 308 308 308 308 307 307 307 307 307 307 307 306 306 306 306 306 306 306 306 306 306 306 306 305 305 305 305 305 305 305 305 305 305 305 305 305 304 304 304
309 308 308 308 308 308 308 308 308 307 307 307 307 306 306 306 306 306 306 306 306 306 306 306 306 306 306 306 305 305 306 306 306 305 305 305 305 305 305 305 305 305
308 308 308 308 308 308 308 308 308 308 307 307 307 306 306 306 306 306 305 305 305 306 306 306 306 306 306 306 306 306 306 306 306 305 305 306 306 306 306 305 305 305
308 307 307 307 307 307 307 307 307 307 307 307 307 307 307 306 306 306 306 305 305 305 305 305 305 306 306 306 306 306 306 306 306 306 305 306 306 306 305 305 306 306
307 307 307 307 307 306 306 306 306 306 306 306 306 306 306 306 306 306 306 306 305 305 305 305 305 305 305 305 305 306 306 306 306 306 306 306 306 306 306 305 305 306
307 307 307 306 306 306 306 306 306 306 305 305 305 305 305 305 305 305 305 305 305 305 305 305 305 305 305 305 305 305 305 305 306 306 306 306 306 306 306 306 306 306
307 307 307 306 307 307 306 306 306 306 306 305 305 305 305 305 305 305 305 304 304 304 304 304 305 305 305 305 305 305 305 305 305 305 305 306 306 306 306 305 305 306
307 307 307 307 307 306 306 306 306 306 306 306 305 305 305 305 305 305 305 305 304 304 304 304 304 304 304 304 304 304 304 305 305 305 305 305 305 305 306 306 305 305
306 306 306 306 306 306 306 306 306 306 306 306 305 305 305 305 305 305 305 305 305 305 305 304 304 304 304 304 304 304 304 304 304 305 305 305 305 305 305 305 305 305
305 305 305 305 305 305 306 305 306 306 305 305 305 305 305 305 305 305 305 304 304 304 304 304 304 304 304 304 304 304 303 304 304 304 304 304 304 304 304 304 304 305
305 305 305 305 305 304 304 305 305 305 305 305 304 304 304 304 304 304 304 304 304 304 304 304 304 304 304 304 304 304 304 303 303 303 303 303 304 304 304 304 304 304
304 304 304 304 304 304 304 304 304 304 304 304 304 304 304 304 304 304 304 304 304 304 304 303 303 303 304 304 304 304 303 303 303 303 302 302 303 303 303 304 304 304
304 304 304 304 304 304 304 304 304 304 304 304 304 304 304 304 304 304 304 304 304 304 304 304 304 304 304 304 303 303 303 303 302 302 302 302 302 302 303 303 303 304
303 303 304 304 304 304 304 304 304 304 304 304 304 304 305 304 305 305 305 305 304 304 304 304 304 304 304 304 303 302 302 302 302 301 301 301 302 302 302 302 303 303
303 303 304 304 304 304 304 305 305 305 304 304 304 304 304 304 305 305 305 304 304 304 304 304 304 304 305 304 303 302 302 301 301 301 301 301 301 301 301 301 302 302
303 303 304 304 304 304 304 305 305 305 305 305 304 305 305 305 305 304 305 304 304 304 304 304 304 305 305 305 304 303 302 301 301 300 300 300 300 300 301 301 301 301
303 303 303 304 304 304 304 304 305 305 305 304 304 304 304 304 304 304 304 304 304 304 304 304 305 305 305 305 304 303 302 301 301 301 301 301 301 301 301 301 301 301
303 303 303 303 303 304 304 304 304 304 304 304 304 304 304 304 304 304 304 304 304 304 304 304 305 305 305 305 304 303 302 301 301 301 301 302 302 302 302 302 302 301
302 302 303 303 303 303 303 303 303 303 303 303 303 303 303 303 303 303 303 304 303 303 303 303 304 304 304 304 304 303 303 302 302 302 302 302 303 303 303 303 302 302
301 301 301 301 302 302 302 302 302 303 303 302 302 302 303 303 303 303 303 303 303 303 303 303 303 303 303 303 303 303 303 303 302 302 302 303 303 303 303 303 302 302
299 299 300 300 300 300 300 301 301 301 301 301 301 301 302 302 302 302 302 302 302 302 302 302 303 303 303 303 303 302 302 302 302 302 302 302 303 303 303 302 302 302
298 298 298 298 298 298 298 298 299 299 299 299 299 299 299 300 300 300 300 300 301 301 301 301 301 302 301 302 302 301 301 302 302 302 302 302 302 303 302 301 301 301
296 295 295 295 295 295 295 295 295 295 296 296 296 296 296 296 297 297 297 298 298 298 298 298 299 299 299 299 299 299 300 300 300 300 301 301 302 302 302 302 302 301
291 292 292 292 291 291 291 291 291 291 291 292 292 292 292 293 293 293 293 293 294 294 295 295 295 296 296 296 296 296 296 296 297 298 298 298 299 299 300 301 301 301
Wind_Speed
20 20 21 21 22 22 22 22 22 22 22 22 22 22 21 21 20 20 21 20 20 19 18 18 18 18 19 19 20 20 21 21 20 20 20 20 20 20 20 20 20 21
20 20 21 21 22 22 22 23 23 23 23 22 22 22 22 22 21 22 22 22 22 21 20 19 19 19 19 20 21 22 23 23 23 22 22 23 22 22 22 22 22 23
20 20 21 21 21 21 21 22 23 23 23 22 22 21 21 21 21 22 22 23 24 24 23 22 21 20 20 20 22 23 24 25 25 24 25 25 25 25 25 24 24 25
20 21 21 21 21 20 20 21 22 22 22 22 22 21 21 21 21 22 22 23 24 24 25 25 25 23 22 22 22 24 25 26 26 26 27 28 27 28 27 26 27 27
21 21 21 21 21 21 21 21 21 21 22 22 21 21 22 22 22 23 23 23 23 24 25 26 27 27 26 25 25 26 26 26 27 27 29 30 29 30 29 29 30 30
20 20 21 21 22 22 22 22 21 21 21 21 21 22 22 23 24 24 24 24 25 25 25 26 27 28 28 29 29 29 29 28 28 28 31 32 31 32 32 32 33 33
19 19 19 20 21 22 22 22 21 21 21 21 22 22 22 23 24 25 25 25 26 27 27 27 27 28 28 29 31 32 31 31 30 30 32 33 33 33 34 34 35 35
21 21 21 21 21 21 21 21 21 21 22 22 23 23 23 24 25 25 26 26 27 28 28 28 29 29 29 30 31 33 33 33 33 33 34 34 34 35 35 35 36 38
23 24 23 23 23 23 23 22 22 22 23 24 25 25 25 26 26 27 27 28 28 28 28 29 29 29 30 31 32 33 34 34 34 35 36 36 37 37 37 36 37 39
26 26 26 26 26 26 26 25 25 26 26 27 27 27 28 28 29 30 30 31 31 31 31 31 30 30 30 31 32 33 34 34 35 36 37 38 39 39 39 39 39 40
29 29 29 29 29 29 29 28 29 29 30 31 31 31 32 32 33 34 34 35 35 35 35 34 34 33 33 33 34 34 34 35 35 36 37 38 40 40 41 41 42 43
31 31 31 30 30 30 31 31 31 32 32 33 34 34 35 36 36 37 37 37 37 37 37 37 37 37 37 37 36 36 36 37 37 37 38 38 39 40 41 42 43 45
32 32 32 31 31 31 31 32 32 32 33 34 34 35 36 37 37 37 37 37 38 38 38 38 38 38 39 39 39 39 39 39 39 39 39 39 39 39 40 41 43 44
34 33 33 32 33 32 32 32 32 33 33 34 34 35 36 36 36 37 37 37 38 38 38 38 38 38 39 39 40 39 40 40 40 40 40 40 40 40 40 41 42 43
34 34 33 33 33 32 33 33 33 33 34 34 34 35 35 36 36 36 37 37 37 37 38 38 38 39 40 40 39 39 39 40 40 40 40 40 41 41 42 42 43 43
34 33 33 33 32 32 32 32 32 33 33 33 33 33 34 34 34 35 35 36 36 36 36 36 37 38 38 38 38 38 39 39 39 40 40 40 41 42 43 43 44 45
32 32 32 32 32 31 31 31 32 31 32 32 32 32 32 32 33 33 33 34 34 35 35 35 35 35 35 35 36 36 37 38 38 39 39 40 41 43 44 44 45 45
30 30 31 31 31 31 32 32 33 33 33 34 34 34 34 33 33 33 33 33 33 33 34 34 34 33 33 34 35 34 34 35 36 38 39 40 42 43 45 45 45 46
28 29 30 31 31 31 32 32 33 33 34 35 35 35 36 36 36 36 35 35 34 34 34 34 33 32 32 34 34 35 34 34 35 36 38 40 42 43 45 46 46 46
29 29 30 31 31 31 32 32 32 33 33 33 34 34 35 35 35 36 36 36 36 36 36 35 34 33 33 33 34 35 35 35 36 37 38 40 41 43 44 45 46 46
29 30 30 31 31 31 32 32 32 32 33 33 33 33 33 34 34 34 35 35 35 36 37 37 35 34 33 33 33 34 35 36 37 38 39 40 40 41 43 44 45 45
30 31 31 31 31 31 31 31 31 32 32 33 34 34 33 34 34 34 35 35 35 35 36 37 36 34 34 34 33 33 33 35 36 38 39 40 40 40 41 42 43 43
30 31 31 30 30 30 30 31 31 31 31 32 33 34 34 34 35 35 35 35 35 35 36 37 37 34 34 34 34 33 34 36 37 38 40 41 41 41 40 41 41 40
30 30 30 30 30 30 31 31 31 31 32 32 33 34 34 34 34 34 34 33 34 35 35 36 37 35 33 33 33 33 35 37 39 41 43 44 45 45 44 43 43 41
31 31 31 32 32 32 32 33 33 33 33 33 33 35 35 36 35 36 36 35 34 35 35 36 37 36 35 35 34 34 34 36 38 40 43 44 46 47 47 47 46 46
32 33 33 34 34 35 35 35 35 35 36 37 37 38 38 39 39 40 41 41 39 39 39 39 40 40 39 38 37 37 36 36 38 40 42 44 46 47 47 47 47 46
Wind_Direction
317 315 314 314 314 315 316 316 317 315 314 315 314 314 313 311 308 305 303 304 305 305 305 304 302 299 295 291 288 285 283 281 280 278 275 273 271 269 266 266 265 265
319 318 317 315 315 315 315 314 314 313 314 316 316 316 315 314 311 306 304 302 300 299 299 299 298 297 295 292 289 286 284 283 281 280 279 276 275 273 270 268 267 266
320 319 319 318 317 316 314 313 311 312 313 312 313 313 312 312 310 307 306 303 301 300 298 295 293 291 290 289 287 285 284 283 283 281 279 278 276 275 274 272 270 268
317 318 319 319 319 317 314 311 310 311 310 310 310 310 307 306 304 303 302 302 301 300 299 297 294 291 288 285 283 283 283 283 283 281 279 277 276 275 275 274 272 270
316 316 317 317 317 317 314 312 312 312 310 310 311 308 306 303 301 300 299 298 298 298 297 296 295 294 291 288 284 282 281 281 281 281 279 278 276 275 274 273 272 271
316 314 315 315 316 316 315 315 316 315 313 313 312 309 308 306 303 301 300 298 296 295 294 293 292 292 292 290 288 285 283 281 280 279 278 279 278 277 275 273 272 271
314 313 313 313 312 312 313 315 317 316 316 315 312 311 311 309 307 306 305 303 300 297 295 294 292 290 290 289 288 287 286 284 282 280 278 278 278 277 276 275 274 273
310 310 310 309 308 308 308 310 312 313 313 311 308 309 310 308 307 308 307 305 303 301 300 298 295 293 292 290 287 286 286 285 284 283 281 280 279 277 276 276 275 274
304 304 304 303 303 304 303 303 304 304 304 303 302 303 303 303 303 303 302 301 299 298 298 298 297 296 294 292 290 288 287 285 285 284 282 281 280 279 279 277 276 275
301 300 299 299 299 299 299 299 299 298 298 298 298 299 298 298 299 298 298 297 295 294 294 293 293 293 293 291 290 290 289 287 286 284 282 281 281 280 280 279 278 276
304 302 301 300 299 298 297 297 296 296 295 296 297 297 297 297 298 297 297 296 295 293 292 291 290 290 289 289 288 288 288 288 286 285 283 282 281 281 280 280 279 278
310 308 307 305 304 302 300 299 298 297 296 297 297 297 297 297 297 297 297 296 296 295 293 292 291 290 288 288 287 287 287 287 286 286 285 284 284 283 282 281 280 279
314 312 311 310 308 306 305 303 301 300 299 299 299 298 298 298 298 298 297 297 296 296 295 294 293 291 290 288 287 288 288 287 287 287 287 286 285 285 283 282 281 280
318 316 315 313 311 310 309 307 306 304 303 302 301 300 300 300 300 300 299 298 297 296 296 296 295 294 292 291 289 288 288 288 288 288 287 287 286 286 284 283 281 280
320 320 318 317 316 314 313 312 311 309 308 307 306 305 305 305 304 303 302 301 300 298 297 296 295 295 295 294 292 290 289 289 289 288 287 286 286 285 285 284 282 281
322 322 321 321 321 320 319 318 317 316 315 314 313 312 311 310 309 309 308 307 305 303 301 299 298 297 297 297 295 294 292 291 290 289 287 286 285 284 283 283 283 283
324 325 325 325 325 325 324 324 323 323 322 321 320 319 318 316 316 315 314 313 311 309 307 305 304 304 303 302 300 298 296 295 292 290 288 286 284 283 283 283 283 283
328 327 327 328 328 328 327 326 326 325 325 325 324 323 322 320 320 319 319 318 316 313 312 310 309 309 309 308 306 304 302 299 295 292 289 287 285 284 284 284 283 283
328 327 327 327 327 327 326 325 325 324 325 325 325 324 323 322 322 322 322 322 321 319 316 315 314 315 315 313 311 310 308 304 299 295 292 290 288 287 286 286 285 284
326 326 326 325 325 325 324 324 323 323 323 324 323 323 323 322 322 322 323 323 324 323 322 321 321 322 320 318 315 314 312 309 305 301 297 294 292 291 290 289 288 288
329 328 327 327 326 325 324 324 323 323 323 323 323 323 322 322 322 322 322 323 324 325 324 324 325 326 325 323 321 319 316 313 310 307 304 301 298 296 294 293 292 291
334 333 332 331 331 329 328 328 327 327 327 325 324 324 323 323 323 323 324 324 324 325 325 323 324 326 326 326 326 324 321 317 314 311 309 306 305 303 301 299 297 295
338 337 336 335 335 334 333 333 332 331 330 329 327 326 325 325 325 325 325 325 325 325 324 322 323 325 326 324 325 326 324 321 318 315 313 311 310 309 308 305 303 301
340 340 340 339 339 338 337 336 335 333 332 331 329 328 327 326 325 324 323 324 323 323 323 322 322 324 326 324 324 326 325 322 320 318 316 315 315 313 312 311 309 307
342 341 341 340 339 339 338 337 336 334 332 331 330 328 327 326 326 325 323 323 323 322 322 322 321 322 324 324 324 325 324 322 321 319 318 317 317 315 313 312 312 311
344 343 342 341 340 340 339 338 337 336 335 333 332 331 330 329 329 328 327 326 326 325 324 324 324 323 324 325 324 324 324 323 321 319 319 318 316 314 313 312 312 312